Skip Page Navigation
NASA JPL Caltech
NASA Logo - Jet Propulsion Laboratory + View the NASA Portal
+ Center for Near-Earth Object Studies
JPL Home Earth Solar System Stars & Galaxies Technology
JPL Solar System Dynamics
BODIES ORBITS EPHEMERIDES TOOLS PHYSICAL DATA DISCOVERY FAQ SITE MAP
IMPORTANT: The SSD Announcement email list is now available. Major changes are coming in the near future, including possible hostname and/or URL changes. To be notified of such changes, subscribe to this email list.

Please visit this page for more details.


JPL Small-Body Database Browser
Search: [ help ]  
266840 (2009 UN24)
Classification: Main-belt Asteroid          SPK-ID: 2266840
Ephemeris | Orbit Diagram | Orbital Elements | Mission Design | Physical Parameters | Discovery Circumstances | Close-Approach Data ]

[ hide orbit diagram ]

For accurate long-term ephemerides, please instead use our Horizons system.This orbit viewer was implemented using two-body methods, and hence should not be used for determining accurate long-term trajectories (over several years or decades) or planetary encounter circumstances.


[ revert to old Java-based viewer ]

Orbital Elements at Epoch 2459000.5 (2020-May-31.0) TDB
Reference: JPL 13 (heliocentric ecliptic J2000)
 Element Value Uncertainty (1-sigma)   Units 
e .02949030484726981 4.9828e-08  
a 2.637804321669396 3.3564e-08 au
q 2.56001466809592 1.4239e-07 au
i 2.795573839064359 7.9931e-06 deg
node 65.2902579453215 0.00015595 deg
peri 227.0941843649067 0.00025681 deg
M 277.5936516113626 0.00019841 deg
tp 2459358.695775277064
(2021-May-24.19577528)
0.0008587 TDB
period 1564.812440075594
4.28
2.9866e-05
8.177e-08
d
yr
n .2300595207324712 4.3909e-09 deg/d
Q 2.715593975242873 3.4553e-08 au
  Orbit Determination Parameters
   # obs. used (total)      201  
   data-arc span      7049 days (19.30 yr)  
   first obs. used      2000-10-06  
   last obs. used      2020-01-24  
   planetary ephem.      DE431  
   SB-pert. ephem.      SB431-N16  
   condition code      0  
   norm. resid. RMS      .59923  
   source      ORB  
   producer      Otto Matic  
   solution date      2020-Feb-25 12:50:10  

Additional Information
 Earth MOID = 1.54478 au 
 Jupiter MOID = 2.31859 au 
 T_jup = 3.394 
[ show covariance matrix ]

Ephemeris | Orbit Diagram | Orbital Elements | Mission Design | Physical Parameters | Discovery Circumstances | Close-Approach Data ]

Physical Parameter Table
Parameter Symbol Value Units Sigma Reference Notes
absolute magnitude H 16.5   n/a MPO433732  

266840 (2009 UN24)          Discovered 2009-Oct-18 by Mt. Lemmon Survey at Mount Lemmon
Reference: 20110218/Numbers.arcLast Updated: 2011-02-22

[ show close-approach data ]
Alternate Designations
 2009 UN24 = 2005 WG147 = 2005 WQ133 = 2005 XC118 = 2005 XT112 
Ephemeris | Orbit Diagram | Orbital Elements | Mission Design | Physical Parameters | Discovery Circumstances | Close-Approach Data ]
ABOUT SSD CREDITS/AWARDS PRIVACY/COPYRIGHT GLOSSARY LINKS
FirstGov 2020-Mar-29 23:01 UT
(server date/time)  
NASA Home Page
Site Manager:   Ryan S. Park
Webmaster  Alan B. Chamberlin